Weather reports worldwide

Advertisment
Moskva, Russia (27612): temperature & dewpoint: 20.05.2019 03:00:00 - 26.05.2019 03:00:00 (MSK)Moskva, Russia (27612): wind speed: 20.05.2019 03:00:00 - 26.05.2019 03:00:00 (MSK)Moskva, Russia (27612): wind direction: 20.05.2019 03:00:00 - 26.05.2019 03:00:00 (MSK)Moskva, Russia (27612): reduced air pressure: 20.05.2019 03:00:00 - 26.05.2019 03:00:00 (MSK)Moskva, Russia (27612): visibility: 20.05.2019 03:00:00 - 26.05.2019 03:00:00 (MSK)
Date & Time tt [°C] td [°C] ff [km/h] ff [kn] dd ppp [hPa] vv [km]
26.05.2019 03:00:00 - - - - - - -
26.05.2019 02:00:00 - - - - - - -
26.05.2019 01:00:00 - - - - - - -
26.05.2019 00:00:00 16,4 12,1 4 2 S 1006,0 -
25.05.2019 23:00:00 - - - - - - -
25.05.2019 22:00:00 - - - - - - -
25.05.2019 21:00:00 17,3 11,3 4 2 SSE 1006,4 10
25.05.2019 20:00:00 - - - - - - -
25.05.2019 19:00:00 - - - - - - -
25.05.2019 18:00:00 18,7 8,7 11 6 SSE 1007,2 10
25.05.2019 17:00:00 - - - - - - -
25.05.2019 16:00:00 - - - - - - -
25.05.2019 15:00:00 18,5 8,0 7 4 SSE 1009,1 10
25.05.2019 14:00:00 - - - - - - -
25.05.2019 13:00:00 - - - - - - -
25.05.2019 12:00:00 17,8 6,9 4 2 SSE 1010,6 10
25.05.2019 11:00:00 - - - - - - -
25.05.2019 10:00:00 - - - - - - -
25.05.2019 09:00:00 14,7 4,9 7 4 SSE 1012,3 10
25.05.2019 08:00:00 - - - - - - -
25.05.2019 07:00:00 - - - - - - -
25.05.2019 06:00:00 12,5 4,1 4 2 SE 1013,4 10
25.05.2019 05:00:00 - - - - - - -
25.05.2019 04:00:00 - - - - - - -
25.05.2019 03:00:00 13,5 5,4 0 0 N 1013,6 -
25.05.2019 02:00:00 - - - - - - -
25.05.2019 01:00:00 - - - - - - -
25.05.2019 00:00:00 11,8 5,5 0 0 N 1013,9 -
24.05.2019 23:00:00 - - - - - - -
24.05.2019 22:00:00 - - - - - - -
24.05.2019 21:00:00 13,8 4,4 0 0 N 1013,9 10
24.05.2019 20:00:00 - - - - - - -
24.05.2019 19:00:00 - - - - - - -
24.05.2019 18:00:00 16,8 3,2 7 4 SSE 1013,2 10
24.05.2019 17:00:00 - - - - - - -
24.05.2019 16:00:00 - - - - - - -
24.05.2019 15:00:00 16,4 3,4 4 2 ENE 1014,1 10
24.05.2019 14:00:00 - - - - - - -
24.05.2019 13:00:00 - - - - - - -
24.05.2019 12:00:00 13,1 5,0 4 2 ESE 1014,7 10
24.05.2019 11:00:00 - - - - - - -
24.05.2019 10:00:00 - - - - - - -
24.05.2019 09:00:00 10,6 6,0 4 2 E 1014,1 10
24.05.2019 08:00:00 - - - - - - -
24.05.2019 07:00:00 - - - - - - -
24.05.2019 06:00:00 14,6 12,1 4 2 N 1024,3 10
24.05.2019 05:00:00 - - - - - - -
24.05.2019 04:00:00 - - - - - - -
24.05.2019 03:00:00 11,0 7,3 7 4 NNE 1011,1 -
24.05.2019 02:00:00 - - - - - - -
24.05.2019 01:00:00 - - - - - - -
24.05.2019 00:00:00 13,5 10,8 11 6 N 1009,0 -
23.05.2019 23:00:00 - - - - - - -
23.05.2019 22:00:00 - - - - - - -
23.05.2019 21:00:00 16,9 12,5 11 6 NNE 1006,8 10
23.05.2019 20:00:00 - - - - - - -
23.05.2019 19:00:00 - - - - - - -
23.05.2019 18:00:00 18,7 13,5 11 6 N 1004,7 10
23.05.2019 17:00:00 - - - - - - -
23.05.2019 16:00:00 - - - - - - -
23.05.2019 15:00:00 18,4 14,5 4 2 W 1004,3 10
23.05.2019 14:00:00 - - - - - - -
23.05.2019 13:00:00 - - - - - - -
23.05.2019 12:00:00 22,8 9,7 4 2 W 1003,6 10
23.05.2019 11:00:00 - - - - - - -
23.05.2019 10:00:00 - - - - - - -
23.05.2019 09:00:00 21,2 10,6 4 2 NW 1004,5 10
23.05.2019 08:00:00 - - - - - - -
23.05.2019 07:00:00 - - - - - - -
23.05.2019 06:00:00 15,7 11,2 0 0 N 1005,3 10
23.05.2019 05:00:00 - - - - - - -
23.05.2019 04:00:00 - - - - - - -
23.05.2019 03:00:00 14,0 11,0 0 0 N 1006,2 -
23.05.2019 02:00:00 - - - - - - -
23.05.2019 01:00:00 - - - - - - -
23.05.2019 00:00:00 17,4 10,2 0 0 N 1007,3 -
22.05.2019 23:00:00 - - - - - - -
22.05.2019 22:00:00 - - - - - - -
22.05.2019 21:00:00 20,1 6,1 0 0 N 1007,6 10
22.05.2019 20:00:00 - - - - - - -
22.05.2019 19:00:00 - - - - - - -
22.05.2019 18:00:00 24,9 4,1 0 0 N 1007,4 10
22.05.2019 17:00:00 - - - - - - -
22.05.2019 16:00:00 - - - - - - -
22.05.2019 15:00:00 25,9 2,7 4 2 S 1008,9 10
22.05.2019 14:00:00 - - - - - - -
22.05.2019 13:00:00 - - - - - - -
22.05.2019 12:00:00 24,6 4,3 4 2 NW 1010,5 10
22.05.2019 11:00:00 - - - - - - -
22.05.2019 10:00:00 - - - - - - -
22.05.2019 09:00:00 21,7 7,4 4 2 NW 1011,8 10
22.05.2019 08:00:00 - - - - - - -
22.05.2019 07:00:00 - - - - - - -
22.05.2019 06:00:00 13,8 9,1 0 0 N 1012,9 10
22.05.2019 05:00:00 - - - - - - -
22.05.2019 04:00:00 - - - - - - -
22.05.2019 03:00:00 17,1 6,2 0 0 N 1013,7 -
22.05.2019 02:00:00 - - - - - - -
22.05.2019 01:00:00 - - - - - - -
22.05.2019 00:00:00 19,3 8,7 4 2 SW 1014,5 -
21.05.2019 23:00:00 - - - - - - -
21.05.2019 22:00:00 - - - - - - -
21.05.2019 21:00:00 19,9 8,3 0 0 N 1014,8 10
21.05.2019 20:00:00 - - - - - - -
21.05.2019 19:00:00 - - - - - - -
21.05.2019 18:00:00 24,2 6,4 4 2 S 1015,4 10
21.05.2019 17:00:00 - - - - - - -
21.05.2019 16:00:00 - - - - - - -
21.05.2019 15:00:00 24,7 6,3 4 2 S 1017,5 10
21.05.2019 14:00:00 - - - - - - -
21.05.2019 13:00:00 - - - - - - -
21.05.2019 12:00:00 20,0 4,1 4 2 SSE 1019,6 10
21.05.2019 11:00:00 - - - - - - -
21.05.2019 10:00:00 - - - - - - -
21.05.2019 09:00:00 16,4 6,2 4 2 E 1020,8 10
21.05.2019 08:00:00 - - - - - - -
21.05.2019 07:00:00 - - - - - - -
21.05.2019 06:00:00 10,7 6,2 0 0 N 1021,5 10
21.05.2019 05:00:00 - - - - - - -
21.05.2019 04:00:00 - - - - - - -
21.05.2019 03:00:00 9,6 4,5 0 0 N 1022,0 -
21.05.2019 02:00:00 - - - - - - -
21.05.2019 01:00:00 - - - - - - -
21.05.2019 00:00:00 11,6 5,3 0 0 N 1021,5 -
20.05.2019 23:00:00 - - - - - - -
20.05.2019 22:00:00 - - - - - - -
20.05.2019 21:00:00 15,7 5,6 0 0 N 1020,6 10
20.05.2019 20:00:00 - - - - - - -
20.05.2019 19:00:00 - - - - - - -
20.05.2019 18:00:00 21,4 0,9 11 6 NNE 1019,9 10
20.05.2019 17:00:00 - - - - - - -
20.05.2019 16:00:00 - - - - - - -
20.05.2019 15:00:00 21,5 3,8 4 2 NW 1020,5 10
20.05.2019 14:00:00 - - - - - - -
20.05.2019 13:00:00 - - - - - - -
20.05.2019 12:00:00 19,1 2,0 11 6 N 1021,7 10
20.05.2019 11:00:00 - - - - - - -
20.05.2019 10:00:00 - - - - - - -
20.05.2019 09:00:00 17,2 1,2 0 0 N 1022,4 10
20.05.2019 08:00:00 - - - - - - -
20.05.2019 07:00:00 - - - - - - -
20.05.2019 06:00:00 9,1 5,7 0 0 N 1022,8 10
20.05.2019 05:00:00 - - - - - - -
20.05.2019 04:00:00 - - - - - - -
20.05.2019 03:00:00 7,3 2,0 0 0 N 1022,3 -

tt = temperature
td = dewpoint
ff = wind speed
dd = wind direction
ppp = reduced air pressure
vv = visibility

Next stations